Location: Asheville, NC
(35.6000°N, 82.5500°W)
Time: 03:23:56
(UTC-04:00)

BEESAT 2 - Pass Details

Date: 16 March 2018
Orbit: 502 x 533 km, 64.9° (Epoch: 17 June)

Event Time Altitude Azimuth Distance (km) Brightness Sun altitude
Exits shadow 05:42:47 34° 0° (N) 876 ? -24.3°
Maximum altitude 05:44:10 54° 58° (ENE) 647 ? -24.0°
Drops below altitude 10° 05:48:01 10° 137° (SE) 1,755 ? -23.3°
Sets 05:50:13 0° 142° (SE) 2,634 ? -22.8°
